{"data":{"norad_id":38978,"intl_designator":"2012-061B","name":"YAMAL 300K","alt_names":[],"object_type":"PAYLOAD","status":"ACTIVE","operator":null,"country":"CIS","launch_date":"2012-11-02","launch_site_code":"TYMSC","launch_vehicle":null,"mission":null,"orbit_class":"UNKNOWN","rcs_meters":17.7827,"size_class":null,"mass_kg":null,"dimensions":null,"purposes":["comms"],"wikipedia_slug":null,"has_3d_model":false,"image_url":null,"decayed_at":null,"tle_current":{"epoch":"2026-09-19T20:00:38.819232Z","epoch_age_seconds":83404,"freshness":"FRESH","line1":"1 38978U 12061B   26262.83378263  .00000067  00000+0  00000+0 0  9994","line2":"2 38978   0.0139 205.9028 0000499 221.2828  54.6807  1.00271309 50584","mean_motion":1.00271309,"eccentricity":4.99e-5,"inclination_deg":0.0139,"raan_deg":205.9028,"arg_perigee_deg":221.2828,"mean_anomaly_deg":54.6807,"bstar":0,"rev_number":5058,"period_min":1436.1037213546,"perigee_km":35784.624375014,"apogee_km":35788.832428581,"semimajor_km":42164.865401798,"source":"CELESTRAK","updated_at":"2026-09-20T09:00:35.178007Z"}}}